OpenBCM V1.07b12 (Linux)

Packet Radio Mailbox

SR1BSZ

[Szczecin_PL JO73GK]

 Login: GUEST





  
I0OJJ  > KEPS     14.12.24 02:57z 355 Lines 16897 Bytes #6 (0) @ AMSAT
BID : ORB24349.1
Read: GUEST
Subj: 2Line Orbital Elements 24349.AMSAT
Path: SR1BSZ<SR4BBX<DB0RES<DB0ERF<IZ3LSV<I0OJJ
Sent: 241214/0245z @:I0OJJ.ITA.EU [Rome] obcm1.08-6-g5b69
From: I0OJJ @ I0OJJ.ITA.EU (Gustavo)
To:   KEPS @ AMSAT
X-Info: This message was generated automatically


QST de W1STR

AMSAT Orbital Elements for Amateur Satellites in TLE Format
From Orbital Analysis Office
New England Sci-Tech STEM Education Center
Natick, MA December 14, 2024
To all radio amateurs


These element sets describe the orbits of various satellites 
in use by the amateur radio community. For details see:
www.amsat.org/keplerian-elements-formats/

A daily update of element sets is available at:
www.amsat.org/tle/daily-bulletin.txt
or without bulletin text:
www.amsat.org/tle/dailytle.txt


AO-07
1 07530U 74089B   24348.47954451 -.00000026  00000-0  12614-3 0  9999
2 07530 101.9898 344.8808 0012395 101.8385  66.4483 12.53683753291505
UO-11
1 14781U 84021B   24348.43777824  .00002431  00000-0  26904-3 0  9993
2 14781  97.7300 312.7466 0007192 193.6075 166.4949 14.88241756175130
AO-27
1 22825U 93061C   24348.58710068  .00000267  00000-0  11935-3 0  9991
2 22825  98.7652  43.0266 0007343 274.7925  85.2418 14.30679842628268
FO-29
1 24278U 96046B   24347.97579224  .00000034  00000-0  67878-4 0  9990
2 24278  98.5880 259.2269 0350965  85.2242 278.8876 13.53225109398613
NOAA-15
1 25338U 98030A   24348.77279781  .00000351  00000-0  16250-3 0  9996
2 25338  98.5531  12.0373 0010711 154.4659 205.7052 14.26824654383045
GO-32
1 25397U 98043D   24348.18441846  .00000206  00000-0  10946-3 0  9998
2 25397  98.9480 317.8209 0001759  39.8077 320.3230 14.24210470372899
ISS
1 25544U 98067A   24348.76597236  .00014908  00000-0  26333-3 0  9998
2 25544  51.6366 145.6773 0007388 336.7065  23.3588 15.50554257486408
NO-44
1 26931U 01043C   24348.64163563  .00000357  00000-0  16521-3 0  9997
2 26931  67.0500 227.8386 0006732 260.5598  99.4743 14.31539142211799
SO-50
1 27607U 02058C   24348.57144518  .00002233  00000-0  30657-3 0  9997
2 27607  64.5557  29.5643 0034885  22.9966 337.2691 14.80499233183070
CO-55
1 27844U 03031E   24348.47228597  .00000723  00000-0  33577-3 0  9997
2 27844  98.6776 353.0669 0009497 351.1649   8.9361 14.23698568113295
CO-57
1 27848U 03031J   24348.48048266  .00000601  00000-0  28564-3 0  9990
2 27848  98.6806 353.2095 0009709   7.8360 352.2968 14.23077060113037
RS-22
1 27939U 03042A   24348.77952014  .00002376  00000-0  39211-3 0  9992
2 27939  98.3073 148.2429 0011105 208.4582 268.5667 14.71369547134677
NOAA-18
1 28654U 05018A   24348.74213590  .00000367  00000-0  21856-3 0  9992
2 28654  98.8611  64.1103 0013243 273.9965  85.9694 14.13451504  8624
CO-58
1 28895U 05043F   24348.16010075  .00003037  00000-0  51846-3 0  9995
2 28895  98.2235 124.7473 0015596 149.1877 211.0247 14.69618269 20724
CO-65
1 32785U 08021C   24348.56051988  .00007103  00000-0  56160-3 0  9991
2 32785  97.7701 313.1040 0013106 103.5362 256.7323 15.00891202902345
AAUSAT2
1 32788U 08021F   24347.75090452  .00052282  00000-0  14484-2 0  9993
2 32788  97.6041 330.7582 0001065  79.3135 280.8228 15.36790459905547
CO-66
1 32791U 08021J   24348.19951961  .00014692  00000-0  87560-3 0  9996
2 32791  97.7105 319.4470 0007343  67.0145 293.1858 15.11263843903564
RS-30
1 32953U 08025A   24348.70352681  .00000031  00000-0  14795-3 0  9993
2 32953  82.5031 337.8268 0020650  74.2356 286.0999 12.43155058751437
PRISM
1 33493U 09002B   24348.65238995  .00064843  00000-0  15954-2 0  9992
2 33493  98.1775  53.9099 0007712 343.9697  16.1302 15.40357602866459
NOAA-19
1 33591U 09005A   24348.72000896  .00000346  00000-0  20877-3 0  9998
2 33591  99.0247  46.2259 0014399 143.3637 216.8522 14.13228204816980
SRMSAT
1 37841U 11058D   24348.57105795  .00000582  00000-0  17306-3 0  9993
2 37841  19.9702 151.6586 0011695 267.3082 134.1555 14.11309208679932
RS-40
1 38735U 12041C   24348.56430073  .00000032  00000-0  16056-3 0  9999
2 38735  82.4772  58.0328 0017686 184.8792 175.2118 12.42621919561454
ZACUBE-1
1 39417U 13066B   24347.82929870  .00008383  00000-0  78924-3 0  9990
2 39417  97.7576 300.4743 0044973 289.6936  69.9434 14.93331266598205
Delfi-N3xt
1 39428U 13066N   24348.76035106  .00008791  00000-0  99215-3 0  9995
2 39428  97.8374 262.9527 0090035 223.8295 135.5751 14.83849357592844
GOMX-1
1 39430U 13066Q   24348.73813455  .00003278  00000-0  52659-3 0  9992
2 39430  97.7042 212.2064 0136878  41.3647 319.7827 14.66146838589337
LO-74
1 39440U 13066AA  24348.28091696  .00006220  00000-0  67340-3 0  9991
2 39440  97.8319 288.6540 0067429  48.3295 312.3666 14.86921991594916
AO-73
1 39444U 13066AE  24348.31424765  .00009660  00000-0  81816-3 0  9991
2 39444  97.7437 304.6874 0040739 264.1475  95.5102 14.97557214596868
DTUSAT-2
1 40030U 14033W   24348.30866057  .00010282  00000-0  75477-3 0  9990
2 40030  98.0332 306.3698 0009068 310.7776  49.2661 15.03643083569565
EO-80
1 40032U 14033Y   24348.60450702  .00009113  00000-0  66848-3 0  9994
2 40032  98.0230 306.5719 0006781 233.8973 126.1624 15.03720677570104
XW-2C
1 40906U 15049H   24348.74848165  .00125430  00000-0  99910-3 0  9998
2 40906  97.4550  12.9537 0004940  34.3568 325.8013 15.70784845512340
LILACSAT-2
1 40908U 15049K   24348.75117013  .00012940  00000-0  41164-3 0  9991
2 40908  97.5184 359.4823 0012939  77.8411 282.4279 15.32653121510934
IO-86
1 40931U 15052B   24337.09180034  .00002217  00000-0  20975-3 0  9992
2 40931   5.9986 232.5457 0013173 302.5393  57.3463 14.78392648496340
ChubuSat-2
1 41338U 16012B   24348.27655543  .00007822  00000-0  43465-3 0  9991
2 41338  31.0014 314.9604 0011072 239.2487 120.7061 15.12286387484694
ChubuSat-3
1 41339U 16012C   24348.31214724  .00006802  00000-0  38839-3 0  9995
2 41339  31.0080 314.6807 0011131 241.6481 118.3036 15.11253778484576
Horyu-4
1 41340U 16012D   24348.41962241  .00021046  00000-0  79423-3 0  9993
2 41340  31.0004 240.1844 0008934   0.4211 359.6438 15.25799577485458
Lapan A3
1 41603U 16040E   24348.73639850  .00004699  00000-0  17588-3 0  9997
2 41603  97.1383 354.5776 0011476 173.7263 186.4123 15.27707300470617
Pratham
1 41783U 16059A   24348.45174022  .00001444  00000-0  27128-3 0  9996
2 41783  97.8289 359.4036 0032230 168.9896 191.2021 14.65767635438792
CAS-2T
1 41847U 16066G   24348.69432188  .00001655  00000-0  24669-3 0  9992
2 41847  98.4434  58.6342 0349404 356.4125   3.4567 14.42538315425367
CAS-4B
1 42759U 17034B   24348.78615168  .00038750  00000-0  90590-3 0  9994
2 42759  43.0142 282.9134 0013609 140.3207 219.8648 15.41406820414983
CAS-4A
1 42761U 17034D   24348.76661406  .00035572  00000-0  82417-3 0  9999
2 42761  43.0178 281.1592 0014625 148.4502 211.7235 15.41695134414992
D-SAT
1 42794U 17036AF  24348.55850365  .00010343  00000-0  64148-3 0  9998
2 42794  97.4954 324.5266 0099218 257.6263 101.3845 15.05835594407664
TechnoSat
1 42829U 17042E   24348.74874647  .00005403  00000-0  44480-3 0  9992
2 42829  97.3843 160.1751 0012532 184.2912 175.8207 14.99424222404054
AO-91
1 43017U 17073E   24348.09667393  .00010961  00000-0  60675-3 0  9991
2 43017  97.5480 217.6577 0193234  52.7100 309.1566 14.99394178382415
S-Net D
1 43186U 18014G   24348.60952445  .00007919  00000-0  51082-3 0  9997
2 43186  97.5772 247.5653 0011291 109.7077 250.5370 15.08504844375510
S-Net B
1 43187U 18014H   24348.61297572  .00008050  00000-0  51934-3 0  9995
2 43187  97.5775 247.5305 0012092 106.1061 254.1499 15.08489710375518
S-Net A
1 43188U 18014J   24348.67676529  .00007991  00000-0  51526-3 0  9995
2 43188  97.5782 247.7224 0011990 106.5854 253.6692 15.08508749375523
S-Net C
1 43189U 18014K   24347.68635157  .00007722  00000-0  49838-3 0  9993
2 43189  97.5791 246.7281 0013678 103.4766 256.7988 15.08471489373923
Ten-Koh
1 43677U 18084G   24347.91919921  .00004688  00000-0  39536-3 0  9994
2 43677  98.0777 147.2733 0014267 143.0234 217.1974 14.98605421333461
PO-101
1 43678U 18084H   24348.72953934  .00002879  00000-0  25647-3 0  9995
2 43678  98.0858 152.4093 0009348 151.4646 208.7088 14.96840484333766
QO-100
1 43700U 18090A   24348.67136598  .00000157  00000-0  00000+0 0  9990
2 43700   0.0017   0.0227 0002603 302.6479  47.6485  1.00270254 22400
MinXSS-2
1 43758U 18099A   24348.44508868  .00015803  00000-0  79592-3 0  9990
2 43758  97.5313  48.7455 0015046  62.6784 297.5979 15.17171249329885
AO-95
1 43770U 18099N   24348.08087329  .00011183  00000-0  65789-3 0  9998
2 43770  97.5224  42.5404 0013516 108.3618 251.9084 15.11741811329535
RANGE-B
1 43772U 18099Q   24347.63431795  .00019733  00000-0  92865-3 0  9994
2 43772  97.5019  46.6099 0004444  20.7090 339.4324 15.19579529329728
RANGE-A
1 43773U 18099R   24348.13774947  .00006373  00000-0  43968-3 0  9996
2 43773  97.4787  35.7880 0013814  84.7293 275.5510 15.06056741329339
MOVE-II
1 43780U 18099Y   24348.45747608  .00041951  00000-0  13018-2 0  9996
2 43780  97.4968  51.4478 0005034  71.9830 288.1961 15.33257897330210
SNUSat 2
1 43782U 18099AA  24347.90889725  .00010065  00000-0  62178-3 0  9998
2 43782  97.4903  40.4575 0014247  54.0304 306.2245 15.09981304329496
SnugLite
1 43784U 18099AC  24347.68311508  .00011560  00000-0  67634-3 0  9997
2 43784  97.4720  39.5548 0005201  66.6819 293.4958 15.11995919329559
ITASat 1
1 43786U 18099AE  24348.08365608  .00008267  00000-0  52607-3 0  9998
2 43786  97.4875  40.5843 0017229 100.4985 259.8186 15.08915364329502
EAGLET 1
1 43790U 18099AJ  24348.09714296  .00006448  00000-0  44221-3 0  9997
2 43790  97.5065  40.9881 0014166  81.9083 278.3751 15.06274281329175
ESEO
1 43792U 18099AL  24348.53121433  .00002816  00000-0  22283-3 0  9992
2 43792  97.4836  36.8676 0009772  51.3813 308.8285 15.01356085329097
CSIM
1 43793U 18099AM  24348.10715631  .00043360  00000-0  13649-2 0  9999
2 43793  97.5120  52.9508 0008778  46.9934 313.2042 15.32768289330008
